N35LF EDML-EDMA

Flight info

Callsign N35LF
Flight time 0h 24m
Altitude 5000
Route VFR DCT ANKER/N0160A050 IFR T105 MIQ Z98 WLD DCT
Aircraft BE35/L-BDFGLORY/S

Departure

Time 2026-04-16 15:25
Airport Landshut Airfield (EDML)

Arrival

Time 2026-04-16 15:49
Airport Augsburg Airport (EDMA)
Time Latitude Longitude Altitude Speed Heading
2026-04-16 15:22 48.51035 12.02770 1319 ft 0 kts 152°
2026-04-16 15:23 48.51025 12.02777 1319 ft 3 kts 152°
2026-04-16 15:23 48.51004 12.02798 1320 ft 2 kts 110°
2026-04-16 15:23 48.51017 12.02844 1320 ft 20 kts 64°
2026-04-16 15:24 48.51165 12.03355 1318 ft 80 kts 66°
2026-04-16 15:24 48.51368 12.04192 1479 ft 89 kts 74°
2026-04-16 15:24 48.51517 12.05148 1665 ft 94 kts 71°
2026-04-16 15:24 48.51706 12.06124 1822 ft 99 kts 66°
2026-04-16 15:25 48.51980 12.07067 2009 ft 99 kts 53°
2026-04-16 15:25 48.52534 12.07607 2196 ft 97 kts
2026-04-16 15:25 48.53206 12.07472 2412 ft 99 kts 347°
2026-04-16 15:25 48.53870 12.07220 2652 ft 99 kts 342°
2026-04-16 15:26 48.54539 12.06940 2870 ft 100 kts 343°
2026-04-16 15:26 48.55282 12.06602 2830 ft 124 kts 343°
2026-04-16 15:26 48.56120 12.06189 2959 ft 129 kts 339°
2026-04-16 15:26 48.56777 12.05307 3096 ft 131 kts 293°
2026-04-16 15:27 48.57003 12.03958 3229 ft 134 kts 281°
2026-04-16 15:27 48.57132 12.02556 3351 ft 134 kts 276°
2026-04-16 15:27 48.57197 12.01150 3440 ft 134 kts 273°
2026-04-16 15:27 48.57176 11.99779 3631 ft 127 kts 267°
2026-04-16 15:28 48.57196 11.98486 3812 ft 121 kts 272°
2026-04-16 15:28 48.57213 11.97263 3996 ft 117 kts 271°
2026-04-16 15:28 48.57218 11.96027 4155 ft 120 kts 270°
2026-04-16 15:28 48.57219 11.94742 4303 ft 124 kts 270°
2026-04-16 15:29 48.57216 11.93429 4450 ft 127 kts 270°
2026-04-16 15:29 48.57213 11.92083 4598 ft 129 kts 270°
2026-04-16 15:29 48.57206 11.90723 4744 ft 131 kts 270°
2026-04-16 15:29 48.57201 11.89358 4888 ft 132 kts 270°
2026-04-16 15:30 48.57194 11.87951 4967 ft 138 kts 270°
2026-04-16 15:30 48.57188 11.86454 4982 ft 146 kts 270°
2026-04-16 15:30 48.57173 11.84886 4982 ft 153 kts 269°
2026-04-16 15:30 48.57167 11.83270 4984 ft 156 kts 271°
2026-04-16 15:31 48.57161 11.81631 4982 ft 156 kts 270°
2026-04-16 15:31 48.57153 11.79984 4980 ft 157 kts 271°
2026-04-16 15:31 48.57148 11.78880 4976 ft 157 kts 270°
2026-04-16 15:31 48.57135 11.76706 4980 ft 157 kts 270°
2026-04-16 15:32 48.57125 11.75061 4982 ft 157 kts 270°
2026-04-16 15:32 48.57114 11.73417 4981 ft 156 kts 270°
2026-04-16 15:32 48.57103 11.71770 4985 ft 157 kts 270°
2026-04-16 15:32 48.57092 11.70129 4985 ft 157 kts 270°
2026-04-16 15:33 48.57082 11.68478 4983 ft 157 kts 270°
2026-04-16 15:33 48.57070 11.66835 4988 ft 158 kts 270°
2026-04-16 15:33 48.57058 11.65170 4982 ft 158 kts 270°
2026-04-16 15:33 48.57045 11.63511 4981 ft 158 kts 270°
2026-04-16 15:34 48.57033 11.61848 4980 ft 158 kts 270°
2026-04-16 15:34 48.57021 11.60217 4981 ft 157 kts 271°
2026-04-16 15:34 48.56829 11.58597 4975 ft 157 kts 265°
2026-04-16 15:34 48.56941 11.56978 4986 ft 155 kts 278°
2026-04-16 15:35 48.57051 11.55365 4989 ft 156 kts 276°
2026-04-16 15:35 48.57121 11.53732 4989 ft 156 kts 274°
2026-04-16 15:35 48.57171 11.52091 4990 ft 157 kts 274°
2026-04-16 15:35 48.57212 11.50425 4984 ft 157 kts 273°
2026-04-16 15:36 48.57248 11.48779 4987 ft 158 kts 273°
2026-04-16 15:36 48.57284 11.47129 4988 ft 159 kts 273°
2026-04-16 15:36 48.57318 11.45458 4988 ft 160 kts 273°
2026-04-16 15:36 48.57352 11.43780 4987 ft 160 kts 273°
2026-04-16 15:37 48.57387 11.42101 4988 ft 160 kts 273°
2026-04-16 15:37 48.57420 11.40408 4988 ft 159 kts 273°
2026-04-16 15:37 48.57454 11.38743 4989 ft 159 kts 273°
2026-04-16 15:37 48.57487 11.37073 4989 ft 159 kts 273°
2026-04-16 15:38 48.57519 11.35408 4989 ft 159 kts 273°
2026-04-16 15:38 48.57552 11.33743 4989 ft 159 kts 272°
2026-04-16 15:38 48.57584 11.32063 4989 ft 159 kts 272°
2026-04-16 15:38 48.57616 11.30394 4990 ft 159 kts 272°
2026-04-16 15:39 48.57645 11.28725 4990 ft 158 kts 272°
2026-04-16 15:39 48.57677 11.27087 4988 ft 153 kts 272°
2026-04-16 15:39 48.57706 11.25514 4987 ft 148 kts 272°
2026-04-16 15:39 48.57734 11.23985 4984 ft 144 kts 273°
2026-04-16 15:40 48.57763 11.22457 4879 ft 148 kts 272°
2026-04-16 15:40 48.57793 11.20868 4757 ft 152 kts 272°
2026-04-16 15:40 48.57824 11.19260 4635 ft 155 kts 272°
2026-04-16 15:40 48.57854 11.17623 4513 ft 157 kts 272°
2026-04-16 15:41 48.57884 11.15990 4392 ft 158 kts 272°
2026-04-16 15:41 48.57565 11.14438 4256 ft 157 kts 231°
2026-04-16 15:41 48.56625 11.13675 4131 ft 156 kts 189°
2026-04-16 15:41 48.55546 11.13761 4019 ft 154 kts 172°
2026-04-16 15:42 48.54522 11.14019 3990 ft 146 kts 170°
2026-04-16 15:42 48.53558 11.14297 3986 ft 138 kts 169°
2026-04-16 15:42 48.52636 11.14573 3988 ft 133 kts 168°
2026-04-16 15:42 48.51723 11.14851 3990 ft 133 kts 168°
2026-04-16 15:43 48.50812 11.15130 3993 ft 135 kts 168°
2026-04-16 15:43 48.49887 11.15414 3992 ft 137 kts 168°
2026-04-16 15:43 48.48947 11.15700 3993 ft 139 kts 168°
2026-04-16 15:43 48.48010 11.15575 3983 ft 137 kts 208°
2026-04-16 15:44 48.47364 11.14551 3884 ft 135 kts 246°
2026-04-16 15:44 48.47008 11.13240 3763 ft 135 kts 252°
2026-04-16 15:44 48.46695 11.11898 3639 ft 135 kts 253°
2026-04-16 15:44 48.46395 11.10571 3524 ft 135 kts 253°
2026-04-16 15:45 48.46096 11.09245 3492 ft 131 kts 253°
2026-04-16 15:45 48.45808 11.07972 3490 ft 126 kts 253°
2026-04-16 15:45 48.45540 11.06734 3484 ft 122 kts 254°
2026-04-16 15:45 48.45270 11.05503 3311 ft 125 kts 253°
2026-04-16 15:46 48.44995 11.04255 3131 ft 127 kts 253°
2026-04-16 15:46 48.44717 11.03001 2942 ft 124 kts 253°
2026-04-16 15:46 48.44446 11.01788 2756 ft 121 kts 253°
2026-04-16 15:46 48.44186 11.00616 2579 ft 118 kts 253°
2026-04-16 15:47 48.43927 10.99459 2400 ft 115 kts 253°
2026-04-16 15:47 48.43697 10.98428 2234 ft 93 kts 253°
2026-04-16 15:47 48.43496 10.97535 2104 ft 89 kts 253°
2026-04-16 15:47 48.43306 10.96682 1967 ft 83 kts 253°
2026-04-16 15:48 48.43126 10.95872 1845 ft 79 kts 251°
2026-04-16 15:48 48.42954 10.95098 1712 ft 78 kts 253°
2026-04-16 15:48 48.42785 10.94344 1588 ft 76 kts 252°
2026-04-16 15:48 48.42624 10.93631 1512 ft 60 kts 252°
2026-04-16 15:49 48.42508 10.93113 1514 ft 45 kts 251°
2026-04-16 15:49 48.42417 10.92712 1511 ft 36 kts 251°
2026-04-16 15:49 48.42353 10.92436 1511 ft 8 kts 246°
2026-04-16 15:49 48.42302 10.92388 1511 ft 12 kts 166°
2026-04-16 15:50 48.42219 10.92425 1511 ft 11 kts 160°
2026-04-16 15:50 48.42147 10.92464 1512 ft 11 kts 157°
2026-04-16 15:50 48.42110 10.92431 1512 ft 6 kts 285°
2026-04-16 15:50 48.42130 10.92411 1512 ft 1 kts
2026-04-16 15:51 48.42139 10.92423 1512 ft 1 kts 72°
2026-04-16 15:51 48.42141 10.92431 1512 ft 0 kts 71°